www.pogodaiklimat.ru

Погода и климат >> Архив погоды >> Саудовская Аравия >> Эд-Даммам


ПОГОДА в Эд-Даммаме

  • Прогноз погоды в Эд-Даммаме
  • Монитор погоды в Эд-Даммаме

АРХИВ ПОГОДЫ в Эд-Даммаме

Время (UTC), дата Ветер
(напр.,м/с)
 
Видим.   Явления Облачность Т
(С)
Тd
(С)
f
(%)
Тe
(С)
Тes
(С)
Комфортность P
(гПа)
Po
(гПа)
Тmin
(С)
Tmax
(С)
R
(мм)
R24
(мм)
S
(см)
09 13.04 СВ 6 10 км 9/6 1200 м
[Sc As op]
+21.2 +16.0 72 +25 +26 комфорт 1010.3 1008.9
12 13.04 С 5 10 км 8/6 600 м
[Sc As op]
+21.4 +15.0 67 +25 +26 комфорт 1009.8 1008.4 26
15 13.04 С 4 10 км 5/3 1200 м
[Sc diur, vesp Ac trans]
+20.8 +15.0 69 +24 +24 комфорт 1010.3 1008.9
18 13.04 З 3 10 км 3/0
[Ac trans]
+20.1 +16.0 77 +23 +23 комфорт 1011.7 1010.2 +22.3
21 13.04 З 4 10 км ясно +19.4 +16.0 81 +21 +21 комфорт 1011.0 1009.5
00 14.04 З 4 10 км ясно +18.5 +15.0 80 +19 +19 1009.4 1008.0
03 14.04 З 6 10 км ясно +18.8 +13.0 69 +19 +19 1011.2 1009.7
06 14.04 СЗ 7 10 км ясно +24.2 +12.0 46 +26 +29 жарко 1012.7 1011.3 +18.2
09 14.04 СЗ 8 10 км ясно +28.1 +5.0 23 +27 +30 жарко 1012.0 1010.6
12 14.04 СЗ 7 10 км ясно +29.5 +5.0 21 +28 +31 жарко 1010.4 1009.0
15 14.04 СЗ 5 10 км ясно +27.9 +7.0 27 +27 +27 жарко 1011.0 1009.6
18 14.04 З 4 10 км ясно +24.5 +8.0 35 +25 +25 комфорт 1012.4 1011.0 +30.1
21 14.04 ЮЗ 4 10 км ясно +21.0 +11.0 53 +23 +23 комфорт 1012.2 1010.8
00 15.04 З 5 10 км ясно +19.4 +7.0 44 +20 +20 1011.3 1009.9
03 15.04 З 4 10 км ясно +18.7 +6.0 43 +19 +19 1012.5 1011.1
12 15.04 З 3 10 км ясно +33.8 -5.0 8 +30 +37 жарко 1011.4 1010.0
15 15.04 В 4 10 км ясно +27.9 +5.0 23 +27 +27 жарко 1011.6 1010.2
18 15.04 ЮВ 2 10 км ясно +25.3 +6.0 29 +25 +25 комфорт 1013.0 1011.6 +34.2
21 15.04 Ю 3 10 км ясно +21.5 +12.0 55 +24 +24 комфорт 1012.4 1011.0
00 16.04 Ю 3 10 км ясно +19.9 +12.0 60 +22 +22 комфорт 1010.9 1009.5
03 16.04 Ю 2 10 км 5/3 600 м
[Frnb Ac trans Cs]
+19.5 +13.0 66 +22 +22 комфорт 1011.8 1010.4
06 16.04 ЮЗ 2 10 км 4/0
[Ci sp]
+28.3 +5.0 23 +27 +39 жарко 1013.0 1011.6 +18.2
09 16.04 ЮЗ 4 10 км 1/0
[Ci fib]
+35.1 0.0 11 +32 +46 жарко 1012.0 1010.6
12 16.04 СЗ 3 10 км 5/0
[Ci sp]
+35.9 -2.0 9 +32 +40 жарко 1009.6 1008.2
15 16.04 В 6 10 км 6/0
[Ac trans Ci sp]
+29.5 +4.0 20 +28 +28 жарко 1009.8 1008.4
18 16.04 В 3 10 км 3/0
[Ac trans]
+26.0 +9.0 34 +26 +26 жарко 1010.9 1009.5 +37.2
21 16.04 нст 1 10 км 4/0
[Ac trans]
+23.6 +11.0 45 +25 +25 комфорт 1010.0 1008.6
00 17.04 Ю 3 10 км 3/0
[Ac trans]
+21.3 +16.0 72 +25 +25 комфорт 1008.8 1007.4
03 17.04 ЮВ 4 10 км 1/0
[Ac trans]
+21.6 +11.0 51 +23 +24 комфорт 1009.5 1008.1
06 17.04 Ю 5 10 км ясно +31.1 +4.0 18 +29 +36 жарко 1010.6 1009.2 +20.7
09 17.04 Ю 7 7000 м пыльный позёмок 1/0
[Ci fib]
+38.4 -3.0 7 +34 +41 очень
жарко
1009.6 1008.2
12 17.04 ЮЗ 5 7000 м пыль 1/0
[Ci fib]
+39.3 -2.0 7 +35 +40 очень
жарко
1007.7 1006.3
15 17.04 ЮВ 7 10 км ясно +35.3 0.0 11 +32 +32 жарко 1007.2 1005.8
18 17.04 ЮВ 8 10 км ясно +29.6 +11.0 32 +30 +30 жарко 1008.3 1006.9 +39.5
21 17.04 ЮВ 5 10 км 3/0
[Ci sp]
+26.6 +13.0 43 +28 +28 жарко 1008.1 1006.7
00 18.04 штиль 0 10 км 4/0 <50 м
[Ac trans]
+25.7 +9.0 35 +26 +26 жарко 1009.2 1007.8
03 18.04 штиль 0 7000 м пыль 8/0
[Ac As]
+25.6 +9.0 35 +26 +26 жарко 1010.4 1009.0
06 18.04 В 3 10 км 6/3 1200 м
[Sc Ac trans]
+30.6 +12.0 32 +31 +37 жарко 1010.6 1009.2 +24.2
09 18.04 Ю 7 10 км 4/0
[Ac trans]
+36.5 +4.0 13 +33 +38 жарко 1009.1 1007.7
12 18.04 ЮВ 8 10 км 3/0
[Ac trans]
+38.1 +3.0 11 +35 +36 очень
жарко
1007.1 1005.7
15 18.04 В 6 10 км 6/3 1200 м
[Sc Ac As]
+34.8 +1.0 12 +31 +31 жарко 1006.2 1004.8
18 18.04 Ю 2 10 км 6/4 1200 м
[Sc Ac lent]
+30.2 +12.0 33 +31 +31 жарко 1009.3 1007.9 +38.7
21 18.04 ЮВ 5 10 км 3/0
[Ac trans]
+27.3 +15.0 47 +30 +30 душно 1008.2 1006.8
00 19.04 Ю 4 10 км 3/0
[Ac trans]
+24.1 +17.0 65 +28 +28 душно 1006.7 1005.3
03 19.04 Ю 3 10 км ясно +22.6 +14.0 58 +26 +26 жарко 1007.8 1006.4
06 19.04 Ю 6 10 км ясно +31.2 +7.0 22 +30 +35 жарко 1008.9 1007.5 +22.1
09 19.04 З 3 6000 м пыль 1/0
[Ac trans]
+36.0 +5.0 15 +33 +49 жарко 1007.9 1006.5
12 19.04 З 5 5000 м пыль 1/0
[Ac trans]
+38.1 +7.0 15 +36 +40 очень
жарко
1005.9 1004.5
15 19.04 С 8 10 км 3/0
[Ac trans]
+28.8 +17.0 49 +33 +33 очень
душно
1007.0 1005.6
18 19.04 С 4 10 км ясно +26.1 +15.0 50 +29 +29 жарко 1009.3 1007.9 +38.9
21 19.04 С 2 10 км 3/0
[Ac trans]
+23.5 +17.0 67 +27 +27 душно 1008.4 1007.0
00 20.04 С 3 10 км ясно +22.6 +17.0 71 +27 +27 душно 1007.0 1005.6
03 20.04 С 2 7000 м дымка 1/0
[Ci fib]
+20.7 +17.0 79 +25 +26 комфорт 1007.3 1005.9

 

Местоположение метеостанции Эд-Даммам (Саудовская Аравия): широта 26.45 долгота 49.82 высота над уровнем моря 12 м.

В архиве по умолчанию представлена погода в Эд-Даммаме за последнюю неделю. Архивные данные за месяц целиком и за предыдущие месяцы, начиная с января 2011 года, Вы можете получить, выбрав интересующий диапазон дат из раскрывающегося списка и нажав кнопку "Ввод!".


*Определитесь, кто Вы:
робот инопланетянин человек

Внимание! Время в таблицах - всемирное. Для получения местного времени необходимо прибавить поправку, которая равна 3 ч.

Смотрите также архив погоды в соседних городах и на ближайших метеорологических станциях:

Погода в Дахране (Саудовская Аравия) (40 км)
Погода в Бахрейне (Бахрейн) (85 км)
Погода в Эль-Хуфуфе (Саудовская Аравия) (132 км)
Погода в Духане (Катар) (149 км)
Погода в Абу Самба (Катар) (214 км)
Погода в Дохе (Катар) (220 км)
Погода в Аэропорту Хамад (Катар) (222 км)
Погода в Доха порту (Катар) (235 км)
Погода в Нувасибе (Кувейт) (251 км)
Погода в Бендер-Дейере (Иран) (259 км)

Пояснения к столбцам:

Ветер - указаны скорость ветра в м/с - средняя за 10 мин, порывы в срок и между сроками (в фигурных скобках) и направление, откуда дует ветер: С - северный, СВ - северо-восточный, В - восточный, ЮВ - юго-восточный, Ю - южный, ЮЗ - юго-западный, З - западный, СЗ - северо-западный.
Видимость - горизонтальная дальность видимости в метрах или километрах. При видимости от 1 до 10 км при отсутствии осадков обычно наблюдается дымка, при ухудшении видимости до 1 км и менее - туман. В сухую погоду видимость может ухудшаться дымом, пылью или мглою.
Явления - указаны атмосферные явления, наблюдавшиеся в срок или в последний час перед сроком; фигурными скобками обозначены явления, наблюдавшиеся между сроками (за 1-3 часа до срока); квадратными скобками обозначены град или гололедные отложения с указанием их диаметра в мм.
Облачность - указаны через наклонную черту общая и нижняя облачность в баллах и высота нижней границы облаков в метрах; квадратными скобками обозначены формы облаков: Ci - перистые, Cs - перисто-слоистые, Cc - перисто-кучевые, Ac - высококучевые, As - высокослоистые, Sc - слоисто-кучевые, Ns - слоисто-дождевые, Cu - кучевые, Cb - кучево-дождевые. Подробнее классификацию облаков см. в Атласе облаков (PDF).
T - Температура воздуха - температура, измеренная на высоте 2 м над землей.
Td - Температура точки росы - температура, при понижении до которой содержащийся в воздухе водяной пар достигнет насыщения.
f - Относительная влажность воздуха - влажноcть воздуха, измеренная на высоте 2 м над землей.
Te - Эффективная температура - температура, которую ощущает одетый по сезону человек в тени. Характеристика душности погоды. При расчете учитывается влияние влажности воздуха и скорости ветра на теплоощущения человека.
Tes - Эффективная температура на солнце - температура, которую ощущает человек, с поправкой на солнечный нагрев. Характеристика знойности погоды. Зависит от высоты солнца над горизонтом, облачности и скорости ветра. Ночью, в пасмурную погоду, а также при ветре 12 м/с и более поправка равна нулю.
P - Атмосферное давление - приведенное к уровню моря атмосферное давление.
Po - Атмосферное давление - измеренное на уровне метеостанции атмосферное давление.
Tmin - Минимальная температура - минимум температуры воздуха на высоте 2 м над землей.
Tmax - Максимальная температура - максимум температуры воздуха на высоте 2 м над землей.
R - Количество осадков - Количество выпавших осадков за период времени, мм. При наведении курсора мыши на число - период времени, за который выпало указанное количество осадков.
R24 - Количество осадков - Количество выпавших осадков за 24 часа, мм.
S - Снежный покров - Высота снежного покрова, см. При наведении курсора мыши на число - состояние снежного покрова и степень покрытия местности в баллах.